Home > Weather > Rouyn-Noranda > Past weeks

Flag for Canada Weather for the Past 2 Weeks in Rouyn-Noranda, Quebec, Canada

Now
0 °F

Light snow. Partly sunny.


Feels Like: -18 °F
Forecast: N/A
Wind: 13 mph from Northwest

Location: Rouyn Airport

Current Time: Feb 10, 2016 at 4:00:56 PM

Latest Report: Feb 10, 2016 at 3:00 PM


Visibility: 6 mi

Pressure: 29.79 "Hg

Humidity: 65%

Dew point: -9 °F

Location of Rouyn-NorandaLocation

Historic Weather in Rouyn-Noranda — Graph

°F

Rouyn-Noranda Temperature Yesterday

Maximum temperature yesterday: 19 °F (at 12:00 PM)
Minimum temperature yesterday: 10 °F (at 11:00 PM)
Average temperature yesterday: 17 °F

High & Low Weather Summary for the Past Weeks

 TemperatureHumidityPressure
High37 °F (Jan 31, 12:00 PM)100% (Jan 30, 7:00 PM)30.39 "Hg (Jan 30, 7:00 PM)
Low-22 °F (Feb 7, 4:00 AM)60% (Feb 7, 12:00 PM)29.39 "Hg (Jan 28, 3:00 PM)
Average11 °F82%29.87 "Hg
* Reported Jan 26 2:00 PM — Feb 10 2:53 PM, Rouyn-Noranda, Weather by CustomWeather, © 2016

Note: Actual official high and low records may vary slightly from our data, if they occured in-between our weather recording intervals... More about our weather records

Advertising

Rouyn-Noranda Weather History for the Previous 24 Hours

 ConditionsComfort  
Time TempWeatherWind HumidityBarometerVisibility
2:53 PM
Wed, Feb 10
0 °FLight snow. Broken clouds.10 mph65%29.79 "Hg4 mi
2:00 PM0 °FLight snow. More clouds than sun.13 mph65%29.78 "Hg4 mi
1:00 PM0 °FLight snow. Broken clouds.10 mph60%29.77 "Hg15 mi
12:00 PM0 °FLight snow. Partly sunny.8 mph65%29.77 "Hg4 mi
11:00 AM0 °FLight snow. Partly sunny.8 mph65%29.78 "Hg5 mi
10:00 AM-2 °FLight snow. More clouds than sun.12 mph71%29.76 "Hg4 mi
9:00 AM-2 °FLight snow. Partly sunny.10 mph71%29.75 "Hg4 mi
8:00 AM-2 °FLight snow. Overcast.9 mph71%29.75 "Hg3 mi
7:00 AM-2 °FLight snow. Overcast.12 mph77%29.73 "Hg5 mi
6:00 AM-2 °FLight snow. Passing clouds.9 mph77%29.72 "Hg8 mi
5:00 AM0 °FLight snow. Passing clouds.13 mph71%29.71 "Hg8 mi
4:00 AM1 °FLight snow. Overcast.10 mph71%29.70 "Hg6 mi
3:00 AM1 °FLight snow. Overcast.12 mph78%29.69 "Hg6 mi
2:00 AM3 °FLight snow. Overcast.16 mph78%29.69 "Hg10 mi
1:00 AM5 °FLight snow. Overcast.12 mph78%29.68 "Hg5 mi
12:00 AM7 °FLight snow. Overcast.13 mph78%29.68 "Hg8 mi
11:00 PM
Tue, Feb 9
10 °FLight snow. Overcast.12 mph79%29.67 "Hg3 mi
10:00 PM14 °FLight snow. Overcast.9 mph85%29.66 "Hg1 mi
9:00 PM18 °FLight snow. Overcast.6 mph86%29.66 "Hg4 mi
8:00 PM18 °FLight snow. Overcast.5 mph86%29.67 "Hg4 mi
7:00 PM18 °FLight snow. Overcast.5 mph93%29.66 "Hg3 mi
6:00 PM18 °FLight snow. Overcast.5 mph93%29.66 "Hg3 mi
5:00 PM19 °FLight snow. Overcast.9 mph79%29.65 "Hg2 mi
4:00 PM19 °FLight snow. Mostly cloudy.5 mph79%29.64 "Hg3 mi
Weather by CustomWeather, © 2016

See weather overviewHow to use our weather pages